West Columbia, SC

1:25 PM EDT on July 24, 2016 (GMT -0400)
Columbia Metro

Weather History for KCAE - May, 2013

Change the Weather History Date:

Wednesday, May 1, 2013

  Actual Average Record
Temperature  
Mean Temperature 66 °F 67 °F  
Max Temperature 72 °F 80 °F 95 °F (1962)
Min Temperature 60 °F 55 °F 40 °F (1908)
Degree Days  
Heating Degree Days 0 2  
Month to date heating degree days 0 2  
Since 1 July heating degree days 2241 2533  
Cooling Degree Days 1 4  
Month to date cooling degree days 1 4  
Year to date cooling degree days 129 99  
Growing Degree Days 16 (Base 50)    
Moisture  
Dew Point 56 °F    
Average Humidity 71    
Maximum Humidity 84    
Minimum Humidity 57    
Precipitation  
Precipitation 0.00 in 0.09 in 2.23 in (1989)
Month to date precipitation 0.00 0.09  
Year to date precipitation 15.00 13.63  
Sea Level Pressure  
Sea Level Pressure 30.18 in    
Wind  
Wind Speed 9 mph (NE)    
Max Wind Speed 15 mph    
Max Gust Speed 21 mph    
Visibility 10 miles    
Events      
T = Trace of Precipitation, MM = Missing Value Source: NWS Daily Summary

Daily Weather History Graph

Daily Weather History Graph

Search for Another Location

Airport or City:

Trip Planner

Search our weather history database for the weather conditions in past years. The results will help you decide how hot, cold, wet, or windy it might be!

Date:

Astronomy

May. 01, 2013 Rise Set
Actual Time 6:35 AM EDT 8:08 PM EDT
Civil Twilight 6:08 AM EDT 8:35 PM EDT
Nautical Twilight 5:36 AM EDT 9:07 PM EDT
Astronomical Twilight 5:02 AM EDT 9:40 PM EDT
Moon 1:16 AM EDT (5/1) 12:11 PM EDT (5/1)
Length of Visible Light 14h 26m
Length of Day
13h 33m
Waning Gibbous, 59% of the Moon is Illuminated
May 1
Waning Gibbous
May 2
Last Quarter
May 9
New
May 18
First Quarter
May 25
Full

Hourly Weather History & Observations

Time (EDT) Temp. Dew Point Humidity Pressure Visibility Wind Dir Wind Speed Gust Speed Precip Events Conditions
12:56 AM 66.0 °F 59.0 °F 78% 30.14 in 10.0 mi ENE 8.1 mph - N/A   Clear
1:56 AM 64.9 °F 57.9 °F 78% 30.14 in 10.0 mi NE 4.6 mph - N/A   Clear
2:56 AM 63.0 °F 57.9 °F 84% 30.13 in 10.0 mi NNE 4.6 mph - N/A   Scattered Clouds
3:56 AM 62.1 °F 57.0 °F 84% 30.13 in 10.0 mi North 5.8 mph - N/A   Mostly Cloudy
4:56 AM 61.0 °F 55.9 °F 83% 30.14 in 10.0 mi NNE 5.8 mph - N/A   Overcast
5:56 AM 61.0 °F 55.0 °F 81% 30.14 in 10.0 mi NNE 9.2 mph - N/A   Overcast
6:56 AM 60.1 °F 55.0 °F 83% 30.15 in 10.0 mi NNE 9.2 mph - N/A   Mostly Cloudy
7:16 AM 60.8 °F 55.4 °F 82% 30.16 in 10.0 mi NNE 10.4 mph 17.3 mph N/A   Mostly Cloudy
7:56 AM 60.1 °F 54.0 °F 80% 30.18 in 10.0 mi NE 12.7 mph 18.4 mph N/A   Overcast
8:56 AM 61.0 °F 54.0 °F 78% 30.20 in 10.0 mi NE 8.1 mph - N/A   Overcast
9:56 AM 62.1 °F 54.0 °F 75% 30.21 in 10.0 mi NE 10.4 mph - N/A   Overcast
10:28 AM 62.6 °F 53.6 °F 72% 30.23 in 10.0 mi ENE 9.2 mph - N/A   Overcast
10:56 AM 63.0 °F 54.0 °F 72% 30.23 in 10.0 mi NE 10.4 mph - N/A   Overcast
11:56 AM 66.0 °F 54.0 °F 65% 30.20 in 10.0 mi NE 11.5 mph - N/A   Overcast
12:56 PM 69.1 °F 54.0 °F 58% 30.19 in 10.0 mi NE 8.1 mph - N/A   Overcast
1:56 PM 69.1 °F 54.0 °F 58% 30.20 in 10.0 mi NE 10.4 mph - N/A   Overcast
2:56 PM 71.1 °F 55.0 °F 57% 30.19 in 10.0 mi ENE 8.1 mph - N/A   Overcast
3:56 PM 71.1 °F 55.9 °F 59% 30.17 in 10.0 mi NE 6.9 mph - N/A   Overcast
4:56 PM 71.1 °F 55.0 °F 57% 30.17 in 10.0 mi ENE 9.2 mph - N/A   Mostly Cloudy
5:56 PM 71.1 °F 55.9 °F 59% 30.16 in 10.0 mi NNE 6.9 mph - N/A   Mostly Cloudy
6:56 PM 70.0 °F 55.9 °F 61% 30.16 in 10.0 mi ENE 11.5 mph - N/A   Mostly Cloudy
7:56 PM 69.1 °F 55.9 °F 63% 30.17 in 10.0 mi ENE 9.2 mph 16.1 mph N/A   Overcast
8:56 PM 66.9 °F 55.0 °F 66% 30.19 in 10.0 mi NE 9.2 mph - N/A   Mostly Cloudy
9:56 PM 66.0 °F 55.9 °F 70% 30.21 in 10.0 mi NE 12.7 mph 18.4 mph N/A   Mostly Cloudy
10:56 PM 64.9 °F 55.9 °F 73% 30.21 in 10.0 mi NE 9.2 mph 17.3 mph N/A   Mostly Cloudy
11:51 PM 64.4 °F 57.2 °F 77% 30.21 in 10.0 mi NNE 8.1 mph - N/A   Overcast
11:56 PM 64.0 °F 57.0 °F 78% 30.20 in 10.0 mi NE 8.1 mph - N/A   Overcast